Orbital Elements at Epoch 2459200.5 (2020-Dec-17.0) TDB
Reference: JPL 17 (heliocentric ecliptic J2000)
Element | Value | Uncertainty (1-sigma) | Units |
e | .07511917229629757 | 5.4535e-08 | |
a | 2.301793615985052 | 1.0836e-08 | au |
q | 2.128884784755353 | 1.2549e-07 | au |
i | 1.500232798306049 | 6.3988e-06 | deg |
node | 184.0647286389961 | 0.00020399 | deg |
peri | 288.7588998298666 | 0.00020903 | deg |
M | 9.855159282721862 | 4.4172e-05 | deg |
tp | 2459165.581213245902 (2020-Nov-12.08121325) | 0.00015646 | TDB |
period | 1275.551502603768 3.49 | 9.0068e-06 2.466e-08 | d yr |
n | .2822308619174815 | 1.9929e-09 | deg/d |
Q | 2.474702447214751 | 1.1649e-08 | au |
|
| | Orbit Determination Parameters
Additional Information
|